[[{"header":{"parameterUnit":"m.s-1","parameterCategory":1,"la1":30.2991,"la2":30.254,"lo1":-89.0895,"lo2":-89.0444,"dy":0.0017,"dx":0.0017,"nx":28,"ny":28,"refTime":"2025-07-13T09:00:00:Z","depth":0,"parameterNumber":2,"parameterNumberName":"U-component_of_WINDS"},"data":[0,0,0,0,0,0,0,0,0,0,0,0,0,0,0,0,0,0,0,0,0,0,0,0,0,0,0,0,0,0,0,0,0,0,0,0,0,0,0,0,0,0,0,0,0,0,0,0,0,0,0,0,0,0,0,0,0,0,3.5551,3.5552,0,3.5679,3.568,3.5682,3.5656,3.5653,3.5651,3.5649,3.5778,3.5783,3.5789,0,0,0,0,0,0,0,0,0,0,0,0,0,3.5281,3.5286,3.5551,3.5552,3.5554,3.5679,3.5681,3.5682,3.5656,3.5653,3.565,3.5648,3.5776,3.5783,3.5789,0,0,0,0,0,0,0,0,0,0,0,0,0,3.5402,3.5288,3.555,3.5556,3.5558,3.5678,3.5681,3.5683,3.5657,3.5653,3.5649,3.5646,3.5774,3.5782,3.579,3.5913,0,0,3.5816,3.582,0,0,0,0,0,0,0,0,3.5396,3.5412,3.5553,3.5556,3.5558,3.5648,3.5633,3.576,3.5657,3.5619,3.5649,3.5644,3.5737,3.5748,3.578,3.5919,3.5925,3.5817,3.5822,3.5826,3.5828,0,0,0,0,0,0,0,3.5387,3.5407,3.5601,3.5555,3.5558,3.5551,3.5565,3.5657,3.5696,3.5622,3.562,3.5636,3.5738,3.5772,3.5783,3.5927,3.5817,3.5824,3.5829,3.5833,3.6172,3.6176,0,0,0,0,0,0,3.5377,3.54,3.5597,3.5605,3.5466,3.5559,3.5574,3.5622,3.5695,3.5703,3.5639,3.5634,3.5759,3.5773,3.5788,3.5936,3.5826,3.5834,3.5838,3.6168,3.6173,3.6177,0,0,0,0,0,0,3.5371,3.5395,3.5592,3.5502,3.5527,3.5567,3.5622,3.5627,3.5661,3.5708,3.5715,3.5667,3.5757,3.5776,3.5882,3.594,3.5837,3.5845,3.6164,3.617,3.6175,3.6233,0,0,0,0,0,0,3.5364,3.5393,3.544,3.5503,3.5532,3.5685,3.5626,3.5632,3.5676,3.5671,3.5736,3.5743,3.5756,3.587,3.5891,3.5949,3.5852,3.6159,3.6166,3.6173,3.6226,3.624,3.6252,0,0,0,0,0,3.5354,3.5451,3.5443,3.5467,3.5592,3.5689,3.5705,3.5718,3.5681,3.5728,3.5759,3.5741,3.593,3.5881,3.5904,3.5966,3.6155,3.6164,3.6173,3.622,3.6237,3.6252,0,0,0,0,0,0,3.5393,3.5459,3.5451,3.5572,3.5625,3.5684,3.5744,3.5735,3.58,3.5792,3.5805,3.582,3.5928,3.5958,3.5902,3.6089,3.6037,3.6051,3.6065,3.6082,3.6095,3.6085,3.5859,0,0,0,0,0,3.5416,3.5489,3.5543,3.5644,3.5671,3.5704,3.5746,3.5752,3.5807,3.5829,3.5867,3.5921,3.5992,3.6039,3.6107,3.623,3.6244,3.6285,3.6298,3.6308,3.632,3.6387,3.6405,3.6207,3.6206,3.6206,0,0,3.5463,3.5508,3.5554,3.5653,3.5695,3.577,3.5723,3.5804,3.586,3.5841,3.5944,3.5974,3.6035,3.615,3.6203,3.6178,3.6378,3.632,3.6328,3.6334,3.6398,3.6416,3.6433,3.6213,3.6212,3.6211,0,0,3.5587,3.563,3.5718,3.5761,3.5826,3.5847,3.5868,3.5929,3.5948,3.6052,3.604,3.6106,3.6229,3.6273,3.6311,3.6453,3.6439,3.6475,3.6542,3.6607,3.6623,3.6637,3.6686,3.6704,3.6486,3.6487,3.6487,0,3.5638,3.5751,3.5765,3.5848,3.5892,3.5879,3.5969,3.601,3.6093,3.6123,3.6095,3.6249,3.6289,3.6414,3.6449,3.648,3.6504,3.6467,3.662,3.6634,3.6647,3.6694,3.6713,3.649,3.649,3.649,3.6489,0,3.581,3.5889,3.5953,3.6034,3.6085,3.6171,3.6196,3.6246,3.6248,3.6272,3.6377,3.6425,3.6503,3.6533,3.6535,3.6659,3.6641,3.6617,3.6565,3.667,3.6714,3.6733,3.6496,3.6494,3.6493,3.6492,0,0,3.5961,3.605,3.6073,3.6109,3.618,3.6241,3.6326,3.6403,3.6445,3.6503,3.6574,3.6679,3.6656,3.67,3.6706,3.6764,3.6872,3.6732,3.6733,3.6755,3.701,3.7028,3.7049,3.6864,3.6868,3.687,3.7005,0,3.6091,3.6242,3.6257,3.6392,3.6465,3.6454,3.6528,3.6579,3.6604,3.6669,3.6695,3.6769,3.6734,3.6761,3.6817,3.6847,3.6923,3.6838,3.6929,3.6932,3.6913,3.7072,3.7091,3.7216,3.7023,3.7026,3.7028,0,3.6263,3.6327,3.6469,3.653,3.6561,3.6627,3.6698,3.6761,3.6818,3.6832,3.6881,3.6881,3.6968,3.6914,3.7033,3.6975,3.7013,3.7034,3.7039,3.7047,3.6985,3.7083,3.7256,3.7274,3.7056,3.7054,3.7052,0,3.6359,3.648,3.6581,3.6612,3.6685,3.6732,3.6765,3.6819,3.6864,3.6926,3.6955,3.7027,3.7066,3.7121,3.714,3.7099,3.7258,3.7206,3.7271,3.7271,3.7304,3.7302,3.7484,3.7331,3.7331,3.7331,3.733,0,3.6502,3.6589,3.6624,3.6686,3.6783,3.6799,3.6895,3.6925,3.6973,3.704,3.7036,3.7098,3.7119,3.7186,3.7201,3.7297,3.7315,3.7328,3.733,3.7328,3.7326,3.7352,3.7343,3.7335,3.7334,3.7333,3.7333,0,3.6624,3.6651,3.676,3.6821,3.6838,3.6907,3.6958,3.7018,3.7041,3.7126,3.7147,3.7184,3.7262,3.7286,3.738,3.739,3.7502,3.7498,3.7483,3.7483,3.7546,3.754,3.7751,3.7779,3.7609,3.761,3.7612,0,3.6713,3.678,3.6848,3.6893,3.6927,3.7,3.7046,3.7064,3.7113,3.7183,3.7234,3.7311,3.7373,3.7498,3.7533,3.7604,3.7601,3.767,3.7611,3.7606,3.7601,3.7596,3.7602,3.768,3.7682,3.7684,3.7685,0,3.6868,3.6879,3.6946,3.7018,3.7074,3.7131,3.7186,3.7223,3.725,3.7304,3.7384,3.7432,3.7528,3.7604,3.7677,3.771,3.7702,3.7703,3.7722,3.7719,3.7707,3.7713,3.7512,3.7698,3.7697,3.7696,3.7695,3.7695,3.6976,3.7035,3.7092,3.7167,3.7211,3.7263,3.7321,3.7353,3.742,3.7499,3.7506,3.7592,3.7648,3.7745,3.7781,3.7848,3.7828,3.7855,3.7862,3.7868,3.7873,3.7698,3.7861,3.7861,3.7861,3.786,3.786,0,3.713,3.7166,3.7235,3.7313,3.7372,3.736,3.7421,3.7471,3.7547,3.7599,3.7661,3.7753,3.7827,3.7868,3.7942,3.7987,3.7985,3.8006,3.8002,3.8009,3.7887,3.7863,3.8006,3.8006,3.8006,3.8006,3.8006,3.8006,3.7217,3.7316,3.7333,3.7453,3.7488,3.7573,3.7609,3.7656,3.7698,3.7801,3.7862,3.7889,3.7937,3.8014,3.8081,3.8091,3.8118,3.8141,3.8149,3.8033,3.8018,3.8004,3.7981,3.8147,3.8147,3.8265,3.8266,3.8267]},{"header":{"parameterUnit":"m.s-1","parameterCategory":1,"la1":30.2991,"la2":30.254,"lo1":-89.0895,"lo2":-89.0444,"dy":0.0017,"dx":0.0017,"nx":28,"ny":28,"refTime":"2025-07-13T09:00:00:Z","depth":0,"parameterNumber":3,"parameterNumberName":"V-component_of_WINDS"},"data":[0,0,0,0,0,0,0,0,0,0,0,0,0,0,0,0,0,0,0,0,0,0,0,0,0,0,0,0,0,0,0,0,0,0,0,0,0,0,0,0,0,0,0,0,0,0,0,0,0,0,0,0,0,0,0,0,0,0,-0.0347,-0.0346,0,-0.0302,-0.0302,-0.0301,-0.0271,-0.027,-0.027,-0.027,-0.0222,-0.0221,-0.022,0,0,0,0,0,0,0,0,0,0,0,0,0,-0.0405,-0.0405,-0.0347,-0.0346,-0.0346,-0.0302,-0.0302,-0.0301,-0.0271,-0.027,-0.027,-0.027,-0.0222,-0.0221,-0.022,0,0,0,0,0,0,0,0,0,0,0,0,0,-0.0372,-0.0404,-0.0347,-0.0325,-0.0323,-0.0302,-0.0302,-0.0301,-0.0271,-0.027,-0.027,-0.027,-0.0223,-0.0221,-0.022,-0.0216,0,0,-0.0215,-0.0214,0,0,0,0,0,0,0,0,-0.0374,-0.037,-0.0329,-0.0327,-0.0324,-0.0292,-0.0305,-0.0272,-0.0271,-0.0291,-0.027,-0.027,-0.0245,-0.0242,-0.0234,-0.0214,-0.0212,-0.0215,-0.0214,-0.0213,-0.0213,0,0,0,0,0,0,0,-0.0377,-0.0372,-0.0329,-0.0329,-0.0326,-0.0318,-0.0313,-0.0298,-0.027,-0.0289,-0.0286,-0.0282,-0.0244,-0.0236,-0.0233,-0.0211,-0.0215,-0.0213,-0.0212,-0.0212,-0.0188,-0.0189,0,0,0,0,0,0,-0.0382,-0.0374,-0.0331,-0.0328,-0.0349,-0.0317,-0.0311,-0.0302,-0.027,-0.0265,-0.0282,-0.028,-0.0239,-0.0235,-0.0231,-0.0226,-0.0213,-0.0211,-0.0211,-0.0188,-0.0188,-0.0189,0,0,0,0,0,0,-0.0384,-0.0379,-0.0332,-0.035,-0.0344,-0.0316,-0.0307,-0.0302,-0.0293,-0.0265,-0.026,-0.0279,-0.0238,-0.0233,-0.0221,-0.0224,-0.0211,-0.0209,-0.0187,-0.0188,-0.0188,-0.0215,0,0,0,0,0,0,-0.0386,-0.038,-0.0378,-0.0351,-0.0343,-0.0323,-0.0307,-0.0301,-0.0291,-0.0289,-0.0261,-0.0256,-0.0238,-0.0223,-0.0219,-0.0221,-0.0208,-0.0187,-0.0188,-0.0188,-0.0214,-0.0217,-0.0219,0,0,0,0,0,-0.0388,-0.0386,-0.0378,-0.0373,-0.034,-0.0323,-0.0319,-0.0298,-0.0291,-0.029,-0.0272,-0.0257,-0.0224,-0.0222,-0.0217,-0.0219,-0.0187,-0.0188,-0.0188,-0.0213,-0.0216,-0.0219,0,0,0,0,0,0,-0.0413,-0.0382,-0.0373,-0.0362,-0.0346,-0.0318,-0.0315,-0.0302,-0.0287,-0.0285,-0.026,-0.0254,-0.0244,-0.023,-0.0229,-0.0215,-0.0204,-0.0204,-0.0224,-0.0227,-0.023,-0.0233,-0.0207,0,0,0,0,0,-0.0418,-0.0407,-0.038,-0.0374,-0.0366,-0.0342,-0.0334,-0.032,-0.0301,-0.0294,-0.0275,-0.0258,-0.0244,-0.0235,-0.022,-0.0212,-0.0206,-0.0211,-0.0214,-0.0216,-0.0216,-0.0212,-0.0214,-0.0191,-0.0191,-0.0191,0,0,-0.0427,-0.0409,-0.0403,-0.0378,-0.0364,-0.0353,-0.0336,-0.0325,-0.0317,-0.0292,-0.028,-0.0266,-0.0244,-0.0235,-0.0229,-0.0223,-0.0221,-0.0217,-0.0219,-0.0218,-0.0213,-0.0216,-0.0218,-0.0192,-0.0192,-0.0192,0,0,-0.0437,-0.0423,-0.0416,-0.0403,-0.0382,-0.0366,-0.0365,-0.034,-0.033,-0.0317,-0.0299,-0.0289,-0.0265,-0.0251,-0.0241,-0.025,-0.0236,-0.0246,-0.0258,-0.0255,-0.0257,-0.0258,-0.0262,-0.0264,-0.0246,-0.0246,-0.0246,0,-0.0451,-0.0434,-0.0414,-0.0405,-0.0395,-0.0374,-0.0368,-0.0355,-0.033,-0.0324,-0.0318,-0.0289,-0.0273,-0.026,-0.0263,-0.0255,-0.0253,-0.0248,-0.0258,-0.026,-0.0261,-0.0264,-0.0265,-0.0247,-0.0247,-0.0247,-0.0247,0,-0.0452,-0.0441,-0.0439,-0.0417,-0.0407,-0.0399,-0.0378,-0.037,-0.0358,-0.0344,-0.0332,-0.0312,-0.0294,-0.0291,-0.0277,-0.0277,-0.0274,-0.0263,-0.0251,-0.0265,-0.0267,-0.0268,-0.0249,-0.0249,-0.0248,-0.0248,0,0,-0.0476,-0.0445,-0.0444,-0.0435,-0.0412,-0.0403,-0.0395,-0.0378,-0.0372,-0.0357,-0.0349,-0.0331,-0.0322,-0.0311,-0.0296,-0.0293,-0.0303,-0.0283,-0.0282,-0.0288,-0.0302,-0.031,-0.0312,-0.0294,-0.0294,-0.0294,-0.0304,0,-0.0483,-0.0468,-0.0451,-0.0441,-0.0432,-0.0413,-0.0406,-0.0391,-0.0378,-0.0368,-0.0353,-0.034,-0.0329,-0.0322,-0.0319,-0.0303,-0.0305,-0.0302,-0.0287,-0.0287,-0.0293,-0.0313,-0.0321,-0.0331,-0.0305,-0.0305,-0.0305,0,-0.0489,-0.0476,-0.0466,-0.0446,-0.0441,-0.0435,-0.042,-0.041,-0.0394,-0.0384,-0.0373,-0.0358,-0.0349,-0.034,-0.0327,-0.0325,-0.0318,-0.031,-0.031,-0.0307,-0.0296,-0.0311,-0.0334,-0.0336,-0.0307,-0.0306,-0.0306,0,-0.0508,-0.0488,-0.048,-0.0472,-0.0448,-0.0445,-0.0434,-0.0417,-0.0409,-0.0396,-0.0391,-0.0376,-0.0368,-0.0357,-0.0339,-0.0334,-0.0329,-0.0317,-0.0321,-0.0322,-0.032,-0.0321,-0.0342,-0.0317,-0.0317,-0.0317,-0.0317,0,-0.0518,-0.0512,-0.0488,-0.0483,-0.0477,-0.0458,-0.0453,-0.0441,-0.0427,-0.0419,-0.0402,-0.0395,-0.0372,-0.0363,-0.0348,-0.0341,-0.0337,-0.033,-0.0326,-0.0331,-0.0332,-0.0326,-0.0325,-0.0317,-0.0317,-0.0317,-0.0317,0,-0.0537,-0.052,-0.0511,-0.049,-0.0484,-0.0481,-0.0463,-0.0457,-0.0444,-0.0435,-0.0432,-0.0411,-0.04,-0.0381,-0.0364,-0.0355,-0.035,-0.0343,-0.0356,-0.0353,-0.0359,-0.0358,-0.0377,-0.0378,-0.0352,-0.0352,-0.0352,0,-0.0544,-0.054,-0.0519,-0.0514,-0.0504,-0.0495,-0.0488,-0.0469,-0.0462,-0.0444,-0.0441,-0.0429,-0.0418,-0.0401,-0.0384,-0.0371,-0.0364,-0.0372,-0.0362,-0.0368,-0.0365,-0.0365,-0.0365,-0.0373,-0.0374,-0.0374,-0.0374,0,-0.0559,-0.0551,-0.0541,-0.0529,-0.0521,-0.051,-0.0498,-0.0495,-0.0474,-0.0467,-0.0456,-0.0448,-0.0431,-0.0419,-0.0405,-0.0394,-0.0381,-0.0378,-0.0378,-0.0383,-0.0391,-0.0387,-0.0362,-0.0377,-0.0377,-0.0377,-0.0377,-0.0377,-0.0572,-0.0568,-0.0554,-0.0544,-0.0534,-0.0524,-0.0518,-0.0506,-0.0496,-0.0482,-0.0472,-0.0462,-0.0447,-0.0426,-0.0417,-0.0409,-0.0403,-0.0403,-0.0403,-0.0403,-0.0406,-0.0393,-0.0406,-0.0406,-0.0406,-0.0406,-0.0405,0,-0.0586,-0.0577,-0.0568,-0.0553,-0.0546,-0.0536,-0.0523,-0.0517,-0.0509,-0.0497,-0.0487,-0.0475,-0.0464,-0.0448,-0.0436,-0.0432,-0.0426,-0.043,-0.043,-0.0428,-0.0411,-0.0413,-0.0435,-0.0435,-0.0435,-0.0435,-0.0435,-0.0435,-0.0593,-0.0586,-0.0578,-0.0567,-0.0557,-0.0548,-0.0541,-0.0533,-0.0523,-0.0511,-0.0502,-0.0492,-0.0478,-0.0466,-0.0455,-0.0451,-0.0447,-0.0453,-0.0446,-0.0431,-0.0429,-0.0426,-0.0427,-0.0452,-0.0452,-0.0463,-0.0464,-0.0464]}]]